Location: Gosfield
(51.9333°N, 0.5833°E)
Time: 22:33:24
(UTC+00:00)

Resurs 01 Rocket - Pass Details

Date: 06 September 2025
Orbit: 626 x 637 km, 97.7° (Epoch: 14 December)

Event Time Altitude Azimuth Distance (km) Brightness Sun altitude
Rises 19:15:34 0° 173° (S) 2,908 4.7 -7.2°
Reaches altitude 10° 19:17:47 10° 176° (S) 2,004 3.9 -7.5°
Maximum altitude 19:22:06 64° 258° (WSW) 702 2.1 -8.1°
Drops below altitude 10° 19:26:28 10° 341° (NNW) 2,016 4.8 -8.8°
Sets 19:28:42 0° 344° (NNW) 2,927 5.6 -9.1°
